,,,PA_Meas_PMT16A,,PR_Meas_QMR101_102,,RH_Meas_QMH101,,SR_Meas_QMS101,,TA_Meas_QMH101,,GenWind,,GenWind,
date,time,status,PA,status,PR,status,RH,status,SR,status,TA,status,DirAvg,status,SpdAvg,
2009-08-08, 00:00:04,VALID,999.006,VALID,0,VALID,40.086,VALID,0,VALID,28.151,VALID,160,VALID,2.3043,
2009-08-08, 00:01:04,VALID,999.02,VALID,0,VALID,41.4441,VALID,0,VALID,28.0728,VALID,132,VALID,2.45039,
2009-08-08, 00:02:04,VALID,999.014,VALID,0,VALID,42.8327,VALID,0,VALID,27.897,VALID,108,VALID,2.05781,
2009-08-08, 00:03:04,VALID,998.995,VALID,0,VALID,44.0916,VALID,0,VALID,27.6431,VALID,131,VALID,2.35391,
2009-08-08, 00:04:04,VALID,998.98,VALID,0,VALID,44.2747,VALID,0,VALID,27.4693,VALID,127,VALID,1.99531,
2009-08-08, 00:05:04,VALID,998.949,VALID,0,VALID,45.7243,VALID,0,VALID,27.311,VALID,126,VALID,1.37461,
2009-08-08, 00:06:04,VALID,998.924,VALID,0,VALID,46.4339,VALID,0,VALID,27.1547,VALID,130,VALID,1.50664,
2009-08-08, 00:07:04,VALID,998.911,VALID,0,VALID,46.9985,VALID,0,VALID,26.9985,VALID,117,VALID,1.98828,
2009-08-08, 00:08:04,VALID,998.859,VALID,0,VALID,47.6088,VALID,0,VALID,26.9008,VALID,116,VALID,1.54219,
2009-08-08, 00:09:04,VALID,998.891,VALID,0,VALID,47.7004,VALID,0,VALID,26.8032,VALID,126,VALID,1.75195,
2009-08-08, 00:10:04,VALID,998.888,VALID,0,VALID,48.3871,VALID,0,VALID,26.7271,VALID,127,VALID,1.56328,
2009-08-08, 00:11:04,VALID,998.879,VALID,0,VALID,48.265,VALID,0,VALID,26.6469,VALID,135,VALID,1.56289,
2009-08-08, 00:12:04,VALID,998.866,VALID,0,VALID,48.1582,VALID,0,VALID,26.6079,VALID,136,VALID,1.46055,
2009-08-08, 00:13:04,VALID,998.875,VALID,0,VALID,48.5931,VALID,0,VALID,26.5863,VALID,126,VALID,1.99727,
2009-08-08, 00:14:04,VALID,998.877,VALID,0,VALID,48.1429,VALID,0,VALID,26.6079,VALID,124,VALID,1.85625,
2009-08-08, 00:15:04,VALID,998.835,VALID,0,VALID,49.0203,VALID,0,VALID,26.6079,VALID,123,VALID,1.4375,
2009-08-08, 00:16:04,VALID,998.856,VALID,0,VALID,49.7604,VALID,0,VALID,26.5688,VALID,114,VALID,1.45742,
2009-08-08, 00:17:04,VALID,998.839,VALID,0,VALID,48.1887,VALID,0,VALID,26.6449,VALID,116,VALID,1.80117,
2009-08-08, 00:18:04,VALID,998.848,VALID,0,VALID,48.8448,VALID,0,VALID,26.686,VALID,113,VALID,1.06523,
2009-08-08, 00:19:04,VALID,998.831,VALID,0,VALID,48.7762,VALID,0,VALID,26.6274,VALID,117,VALID,1.66172,
2009-08-08, 00:20:04,VALID,998.849,VALID,0,VALID,49.3865,VALID,0,VALID,26.5884,VALID,105,VALID,1.77148,
2009-08-08, 00:21:04,VALID,998.865,VALID,0,VALID,49.5239,VALID,0,VALID,26.5688,VALID,120,VALID,1.27031,
2009-08-08, 00:22:04,VALID,998.849,VALID,0,VALID,49.2339,VALID,0,VALID,26.5298,VALID,115,VALID,1.32891,
2009-08-08, 00:23:04,VALID,998.865,VALID,0,VALID,49.9282,VALID,0,VALID,26.5102,VALID,122,VALID,0.386328,
2009-08-08, 00:24:04,VALID,998.89,VALID,0,VALID,50.5005,VALID,0,VALID,26.4517,VALID,121,VALID,0.448438,
2009-08-08, 00:25:04,VALID,998.884,VALID,0,VALID,49.7146,VALID,0,VALID,26.3736,VALID,112,VALID,1.95156,
2009-08-08, 00:26:04,VALID,998.861,VALID,0,VALID,49.8138,VALID,0,VALID,26.315,VALID,113,VALID,1.70352,
2009-08-08, 00:27:04,VALID,998.914,VALID,0,VALID,51.5152,VALID,0,VALID,26.2759,VALID,118,VALID,1.45898,
2009-08-08, 00:28:04,VALID,998.862,VALID,0,VALID,51.5991,VALID,0,VALID,26.1978,VALID,114,VALID,0.973047,
2009-08-08, 00:29:04,VALID,998.874,VALID,0,VALID,51.9348,VALID,0,VALID,26.1197,VALID,118,VALID,1.50391,
2009-08-08, 00:30:04,VALID,998.837,VALID,0,VALID,52.4842,VALID,0,VALID,26.0611,VALID,117,VALID,1.24102,
2009-08-08, 00:31:04,VALID,998.831,VALID,0,VALID,51.6525,VALID,0,VALID,26.0611,VALID,149,VALID,2.67578,
2009-08-08, 00:32:04,VALID,998.815,VALID,0,VALID,52.0187,VALID,0,VALID,26.1588,VALID,126,VALID,1.57305,
2009-08-08, 00:33:04,VALID,998.799,VALID,0,VALID,52.3468,VALID,0,VALID,26.1392,VALID,96,VALID,1.27266,
2009-08-08, 00:34:04,VALID,998.784,VALID,0,VALID,52.034,VALID,0,VALID,26.0611,VALID,144,VALID,1.61797,
2009-08-08, 00:35:04,VALID,998.787,VALID,0,VALID,52.6291,VALID,0,VALID,26.0611,VALID,137,VALID,1.42695,
2009-08-08, 00:36:04,VALID,998.832,VALID,0,VALID,52.5757,VALID,0,VALID,26.0221,VALID,140,VALID,0.979688,
2009-08-08, 00:37:04,VALID,998.827,VALID,0,VALID,53.27,VALID,0,VALID,25.9635,VALID,131,VALID,0.933203,
2009-08-08, 00:38:04,VALID,998.852,VALID,0,VALID,53.8499,VALID,0,VALID,25.944,VALID,138,VALID,0.739844,
2009-08-08, 00:39:04,VALID,998.872,VALID,0,VALID,53.888,VALID,0,VALID,25.8659,VALID,156,VALID,0.954687,
2009-08-08, 00:40:04,VALID,998.894,VALID,0,VALID,54.1474,VALID,0,VALID,25.8073,VALID,140,VALID,0.687109,
2009-08-08, 00:41:04,VALID,998.916,VALID,0,VALID,54.5136,VALID,0,VALID,25.7683,VALID,120,VALID,1.16289,
2009-08-08, 00:42:04,VALID,998.891,VALID,0,VALID,54.5289,VALID,0,VALID,25.7292,VALID,127,VALID,1.75781,
2009-08-08, 00:43:04,VALID,998.898,VALID,0,VALID,54.5136,VALID,0,VALID,25.7683,VALID,118,VALID,1.20234,
2009-08-08, 00:44:04,VALID,998.913,VALID,0,VALID,54.3916,VALID,0,VALID,25.7487,VALID,97,VALID,0.977344,
2009-08-08, 00:45:04,VALID,998.908,VALID,0,VALID,54.9409,VALID,0,VALID,25.7292,VALID,94,VALID,0.248437,
2009-08-08, 00:46:04,VALID,998.9,VALID,0,VALID,55.2995,VALID,0,VALID,25.6707,VALID,94,VALID,0,
2009-08-08, 00:47:04,VALID,998.944,VALID,0,VALID,55.4673,VALID,0,VALID,25.6316,VALID,101,VALID,0.323438,
2009-08-08, 00:48:04,VALID,998.945,VALID,0,VALID,55.7954,VALID,0,VALID,25.5926,VALID,101,VALID,0.326953,
2009-08-08, 00:49:04,VALID,998.974,VALID,0,VALID,55.803,VALID,0,VALID,25.534,VALID,101,VALID,0.0933594,
2009-08-08, 00:50:04,VALID,998.992,VALID,0,VALID,56.1693,VALID,0,VALID,25.4754,VALID,101,VALID,0.111719,
2009-08-08, 00:51:04,VALID,999.006,VALID,0,VALID,58.5192,VALID,0,VALID,25.4364,VALID,101,VALID,0.44375,
2009-08-08, 00:52:04,VALID,999.045,VALID,0,VALID,57.7486,VALID,0,VALID,25.3173,VALID,94,VALID,0.489062,
2009-08-08, 00:53:04,VALID,999.004,VALID,0,VALID,58.1301,VALID,0,VALID,25.2412,VALID,72,VALID,0.622266,
2009-08-08, 00:54:04,VALID,999.028,VALID,0,VALID,58.069,VALID,0,VALID,25.1631,VALID,59,VALID,0.4,
2009-08-08, 00:55:04,VALID,999.044,VALID,0,VALID,58.5802,VALID,0,VALID,25.1241,VALID,58,VALID,0.424609,
2009-08-08, 00:56:04,VALID,999.039,VALID,0,VALID,58.9388,VALID,0,VALID,25.085,VALID,56,VALID,0.376953,
2009-08-08, 00:57:04,VALID,999.064,VALID,0,VALID,59.3127,VALID,0,VALID,25.0674,VALID,56,VALID,0.555859,
2009-08-08, 00:58:04,VALID,999.097,VALID,0,VALID,59.6255,VALID,0,VALID,24.9874,VALID,56,VALID,0.364453,
2009-08-08, 00:59:04,VALID,999.114,VALID,0,VALID,60.0985,VALID,0,VALID,24.9484,VALID,56,VALID,0.290234,
2009-08-08, 01:00:04,VALID,999.133,VALID,0,VALID,60.3503,VALID,0,VALID,24.8898,VALID,56,VALID,0.282813,
2009-08-08, 01:01:04,VALID,999.133,VALID,0,VALID,60.1901,VALID,0,VALID,24.8703,VALID,54,VALID,0.555469,
2009-08-08, 01:02:04,VALID,999.118,VALID,0,VALID,60.6173,VALID,0,VALID,24.8313,VALID,36,VALID,0.803125,
2009-08-08, 01:03:04,VALID,999.111,VALID,0,VALID,61.8533,VALID,0,VALID,24.7727,VALID,4,VALID,0.759766,
2009-08-08, 01:04:04,VALID,999.108,VALID,0,VALID,62.2958,VALID,0,VALID,24.6946,VALID,352,VALID,0.469531,
2009-08-08, 01:05:04,VALID,999.067,VALID,0,VALID,63.5318,VALID,0,VALID,24.6166,VALID,352,VALID,0.514063,
2009-08-08, 01:06:04,VALID,999.018,VALID,0,VALID,65.4393,VALID,0,VALID,24.5599,VALID,352,VALID,0.458203,
2009-08-08, 01:07:04,VALID,999.016,VALID,0,VALID,65.2638,VALID,0,VALID,24.4019,VALID,352,VALID,0.441016,
2009-08-08, 01:08:04,VALID,998.999,VALID,0,VALID,64.7221,VALID,0,VALID,24.2671,VALID,352,VALID,0.652734,
2009-08-08, 01:09:04,VALID,998.954,VALID,0,VALID,65.5384,VALID,0,VALID,24.1677,VALID,352,VALID,0.514453,
2009-08-08, 01:10:04,VALID,998.968,VALID,0,VALID,66.4387,VALID,0,VALID,24.15,VALID,352,VALID,0.539453,
2009-08-08, 01:11:04,VALID,998.958,VALID,0,VALID,67.0872,VALID,0,VALID,24.0701,VALID,352,VALID,0.64375,
2009-08-08, 01:12:04,VALID,998.941,VALID,0,VALID,64.2795,VALID,0,VALID,24.0311,VALID,340,VALID,1.06445,
2009-08-08, 01:13:04,VALID,998.971,VALID,0,VALID,65.8207,VALID,0,VALID,24.1287,VALID,294,VALID,0.578516,
2009-08-08, 01:14:04,VALID,998.93,VALID,0,VALID,65.012,VALID,0,VALID,24.2067,VALID,210,VALID,0.427344,
2009-08-08, 01:15:04,VALID,998.956,VALID,0,VALID,63.6844,VALID,0,VALID,24.2653,VALID,230,VALID,0.633984,
2009-08-08, 01:16:04,VALID,998.942,VALID,0,VALID,61.5176,VALID,0,VALID,24.4409,VALID,280,VALID,0.909375,
2009-08-08, 01:17:04,VALID,998.925,VALID,0,VALID,61.1896,VALID,0,VALID,24.6166,VALID,275,VALID,0.816016,
2009-08-08, 01:18:04,VALID,998.927,VALID,0,VALID,60.7852,VALID,0,VALID,24.7941,VALID,270,VALID,0.882031,
2009-08-08, 01:19:04,VALID,998.917,VALID,0,VALID,60.0451,VALID,0,VALID,24.8703,VALID,271,VALID,0.982813,
2009-08-08, 01:20:04,VALID,998.922,VALID,0,VALID,59.4195,VALID,0,VALID,25.0479,VALID,273,VALID,0.800391,
2009-08-08, 01:21:04,VALID,998.921,VALID,0,VALID,57.7944,VALID,0,VALID,25.1241,VALID,275,VALID,1.33594,
2009-08-08, 01:22:04,VALID,998.869,VALID,0,VALID,58.6565,VALID,0,VALID,25.2217,VALID,275,VALID,1.0793,
2009-08-08, 01:23:04,VALID,998.897,VALID,0,VALID,57.8249,VALID,0,VALID,25.2412,VALID,279,VALID,0.709766,
2009-08-08, 01:24:04,VALID,998.89,VALID,0,VALID,57.4663,VALID,0,VALID,25.2802,VALID,282,VALID,0.933203,
2009-08-08, 01:25:04,VALID,998.883,VALID,0,VALID,57.8478,VALID,0,VALID,25.3778,VALID,278,VALID,0.555859,
2009-08-08, 01:26:04,VALID,998.888,VALID,0,VALID,58.0004,VALID,0,VALID,25.3778,VALID,278,VALID,0.773438,
2009-08-08, 01:27:04,VALID,998.852,VALID,0,VALID,57.8707,VALID,0,VALID,25.3602,VALID,278,VALID,0.551172,
2009-08-08, 01:28:04,VALID,998.871,VALID,0,VALID,62.273,VALID,0,VALID,25.3193,VALID,73,VALID,0.966406,
2009-08-08, 01:29:04,VALID,998.849,VALID,0,VALID,64.3024,VALID,0,VALID,25.085,VALID,46,VALID,1.15859,
2009-08-08, 01:30:04,VALID,998.855,VALID,0,VALID,65.9047,VALID,0,VALID,24.7532,VALID,35,VALID,0.947656,
2009-08-08, 01:31:04,VALID,998.871,VALID,0,VALID,66.7363,VALID,0,VALID,24.519,VALID,62,VALID,0.829297,
2009-08-08, 01:32:04,VALID,998.838,VALID,0,VALID,68.102,VALID,0,VALID,24.3433,VALID,13,VALID,0.653125,
2009-08-08, 01:33:04,VALID,998.85,VALID,0,VALID,68.8192,VALID,0.112286,VALID,24.1482,VALID,10,VALID,0.128516,
2009-08-08, 01:34:04,VALID,998.866,VALID,0,VALID,69.2617,VALID,0,VALID,24.0116,VALID,10,VALID,0.280859,
2009-08-08, 01:35:04,VALID,998.856,VALID,0,VALID,69.5592,VALID,0,VALID,23.8945,VALID,10,VALID,0,
2009-08-08, 01:36:04,VALID,998.849,VALID,0,VALID,70.2307,VALID,0,VALID,23.8165,VALID,18,VALID,0.528906,
2009-08-08, 01:37:04,VALID,998.872,VALID,0,VALID,70.4061,VALID,0,VALID,23.7793,VALID,58,VALID,1.19844,
2009-08-08, 01:38:04,VALID,998.872,VALID,0,VALID,70.2001,VALID,0,VALID,23.6799,VALID,61,VALID,1.53398,
2009-08-08, 01:39:04,VALID,998.88,VALID,0,VALID,71.4895,VALID,0.112286,VALID,23.6409,VALID,60,VALID,1.79219,
2009-08-08, 01:40:04,VALID,998.854,VALID,0,VALID,72.0084,VALID,0,VALID,23.5823,VALID,62,VALID,1.62422,
2009-08-08, 01:41:04,VALID,998.843,VALID,0,VALID,72.489,VALID,0,VALID,23.5061,VALID,61,VALID,1.74258,
2009-08-08, 01:42:04,VALID,998.864,VALID,0,VALID,73.1757,VALID,0,VALID,23.389,VALID,62,VALID,1.42578,
2009-08-08, 01:43:04,VALID,998.86,VALID,0,VALID,73.5038,VALID,0,VALID,23.311,VALID,65,VALID,0.457812,
2009-08-08, 01:44:04,VALID,998.839,VALID,0,VALID,74.0836,VALID,0,VALID,23.2932,VALID,71,VALID,0.157813,
2009-08-08, 01:45:04,VALID,998.845,VALID,0,VALID,73.9005,VALID,0,VALID,23.1744,VALID,302,VALID,0.799219,
2009-08-08, 01:46:04,VALID,998.876,VALID,0,VALID,73.7479,VALID,0,VALID,23.1549,VALID,335,VALID,0.648828,
2009-08-08, 01:47:04,VALID,998.877,VALID,0,VALID,73.8395,VALID,0,VALID,23.1371,VALID,336,VALID,0.0539063,
2009-08-08, 01:48:04,VALID,998.88,VALID,0,VALID,73.3588,VALID,0,VALID,23.0964,VALID,336,VALID,0.537891,
2009-08-08, 01:49:04,VALID,998.861,VALID,0,VALID,73.4427,VALID,0,VALID,23.0964,VALID,336,VALID,0.330469,
2009-08-08, 01:50:04,VALID,998.823,VALID,0,VALID,73.4046,VALID,0,VALID,23.0964,VALID,336,VALID,0.550391,
2009-08-08, 01:51:04,VALID,998.793,VALID,0,VALID,74.1828,VALID,0,VALID,23.0964,VALID,336,VALID,0.475391,
2009-08-08, 01:52:04,VALID,998.788,VALID,0,VALID,74.2667,VALID,0,VALID,23.0786,VALID,10,VALID,0.690234,
2009-08-08, 01:53:04,VALID,998.751,VALID,0,VALID,74.8847,VALID,0,VALID,23.0378,VALID,10,VALID,0.301172,
2009-08-08, 01:54:04,VALID,998.768,VALID,0,VALID,74.7779,VALID,0,VALID,22.9793,VALID,10,VALID,0.166797,
2009-08-08, 01:55:04,VALID,998.749,VALID,0,VALID,74.488,VALID,0,VALID,22.9615,VALID,10,VALID,0.251563,
2009-08-08, 01:56:04,VALID,998.73,VALID,0,VALID,72.8018,VALID,0,VALID,22.9208,VALID,87,VALID,0.854297,
2009-08-08, 01:57:04,VALID,998.736,VALID,0,VALID,72.6416,VALID,0,VALID,22.9776,VALID,55,VALID,0.962109,
2009-08-08, 01:58:04,VALID,998.719,VALID,0,VALID,72.9468,VALID,0.112286,VALID,23.0556,VALID,42,VALID,0.730469,
2009-08-08, 01:59:04,VALID,998.726,VALID,0,VALID,73.0689,VALID,0,VALID,23.0751,VALID,37,VALID,0.281641,
2009-08-08, 02:00:04,VALID,998.707,VALID,0,VALID,72.9926,VALID,0,VALID,23.0556,VALID,37,VALID,0.150781,
2009-08-08, 02:01:04,VALID,998.696,VALID,0,VALID,72.5272,VALID,0,VALID,23.0378,VALID,37,VALID,0.116797,
2009-08-08, 02:02:04,VALID,998.685,VALID,0,VALID,72.428,VALID,0,VALID,23.0573,VALID,45,VALID,0.565234,
2009-08-08, 02:03:04,VALID,998.663,VALID,0,VALID,71.9015,VALID,0,VALID,23.0573,VALID,60,VALID,0.842188,
2009-08-08, 02:04:04,VALID,998.646,VALID,0,VALID,71.7337,VALID,0,VALID,23.0964,VALID,60,VALID,0.347656,
2009-08-08, 02:05:04,VALID,998.631,VALID,0,VALID,71.8481,VALID,0,VALID,23.0964,VALID,56,VALID,0.350391,
2009-08-08, 02:06:04,VALID,998.639,VALID,0,VALID,72.2678,VALID,0,VALID,23.1159,VALID,18,VALID,0.671094,
2009-08-08, 02:07:04,VALID,998.655,VALID,0,VALID,71.1462,VALID,0,VALID,23.1354,VALID,54,VALID,0.443359,
2009-08-08, 02:08:04,VALID,998.651,VALID,0,VALID,70.986,VALID,0,VALID,23.1744,VALID,87,VALID,0.590234,
2009-08-08, 02:09:04,VALID,998.692,VALID,0,VALID,70.4977,VALID,0,VALID,23.1744,VALID,115,VALID,1.01719,
2009-08-08, 02:10:04,VALID,998.714,VALID,0,VALID,70.3298,VALID,0,VALID,23.2524,VALID,116,VALID,0.653516,
2009-08-08, 02:11:04,VALID,998.69,VALID,0,VALID,69.5516,VALID,0,VALID,23.35,VALID,116,VALID,0.939844,
2009-08-08, 02:12:04,VALID,998.709,VALID,0,VALID,68.6132,VALID,0,VALID,23.5061,VALID,118,VALID,0.779297,
2009-08-08, 02:13:04,VALID,998.72,VALID,0,VALID,68.781,VALID,0,VALID,23.6232,VALID,118,VALID,0.450391,
2009-08-08, 02:14:04,VALID,998.712,VALID,0,VALID,68.041,VALID,0,VALID,23.6622,VALID,118,VALID,0.299609,
2009-08-08, 02:15:04,VALID,998.702,VALID,0,VALID,67.9418,VALID,0,VALID,23.7012,VALID,140,VALID,0.818359,
2009-08-08, 02:16:04,VALID,998.688,VALID,0,VALID,69.3075,VALID,0,VALID,23.7616,VALID,111,VALID,0.803906,
2009-08-08, 02:17:04,VALID,998.683,VALID,0,VALID,69.9789,VALID,0,VALID,23.7597,VALID,106,VALID,1.32344,
2009-08-08, 02:18:04,VALID,998.662,VALID,0,VALID,73.5648,VALID,0,VALID,23.7402,VALID,107,VALID,1.6875,
2009-08-08, 02:19:04,VALID,998.661,VALID,0,VALID,73.6716,VALID,0,VALID,23.5859,VALID,116,VALID,1.8,
2009-08-08, 02:20:04,VALID,998.695,VALID,0,VALID,73.7937,VALID,0,VALID,23.4493,VALID,122,VALID,1.29453,
2009-08-08, 02:21:04,VALID,998.665,VALID,0,VALID,73.4656,VALID,0,VALID,23.35,VALID,125,VALID,1.12461,
2009-08-08, 02:22:04,VALID,998.685,VALID,0,VALID,72.7408,VALID,0,VALID,23.3305,VALID,127,VALID,0.892969,
2009-08-08, 02:23:04,VALID,998.702,VALID,0,VALID,73.0231,VALID,0,VALID,23.3518,VALID,125,VALID,0.4375,
2009-08-08, 02:24:04,VALID,998.69,VALID,0,VALID,72.6721,VALID,0,VALID,23.3518,VALID,126,VALID,0.289844,
2009-08-08, 02:25:04,VALID,998.703,VALID,0,VALID,72.8934,VALID,0,VALID,23.3323,VALID,125,VALID,0.125781,
2009-08-08, 02:26:04,VALID,998.671,VALID,0,VALID,72.9697,VALID,0,VALID,23.2915,VALID,126,VALID,0.210156,
2009-08-08, 02:27:04,VALID,998.654,VALID,0,VALID,73.0536,VALID,0,VALID,23.2719,VALID,125,VALID,0.257031,
2009-08-08, 02:28:04,VALID,998.694,VALID,0,VALID,73.1757,VALID,0,VALID,23.2524,VALID,125,VALID,0.393359,
2009-08-08, 02:29:04,VALID,998.671,VALID,0,VALID,73.9234,VALID,0,VALID,23.2347,VALID,99,VALID,1.1332,
2009-08-08, 02:30:04,VALID,998.676,VALID,0,VALID,75.3044,VALID,0,VALID,23.1549,VALID,96,VALID,1.45508,
2009-08-08, 02:31:04,VALID,998.667,VALID,0,VALID,75.7698,VALID,0,VALID,23.1176,VALID,92,VALID,1.3418,
2009-08-08, 02:32:04,VALID,998.681,VALID,0,VALID,75.6858,VALID,0,VALID,22.9988,VALID,92,VALID,1.47266,
2009-08-08, 02:33:04,VALID,998.617,VALID,0,VALID,76.0749,VALID,0,VALID,22.9598,VALID,65,VALID,1.47891,
2009-08-08, 02:34:04,VALID,998.619,VALID,0,VALID,76.2199,VALID,0,VALID,22.942,VALID,50,VALID,1.41094,
2009-08-08, 02:35:04,VALID,998.638,VALID,0,VALID,76.5938,VALID,0,VALID,22.903,VALID,45,VALID,0.985937,
2009-08-08, 02:36:04,VALID,998.605,VALID,0,VALID,76.548,VALID,0,VALID,22.8623,VALID,49,VALID,0.822656,
2009-08-08, 02:37:04,VALID,998.657,VALID,0,VALID,77.7535,VALID,0,VALID,22.8445,VALID,1,VALID,0.667188,
2009-08-08, 02:38:04,VALID,998.685,VALID,0,VALID,78.5317,VALID,0,VALID,22.7647,VALID,336,VALID,0.732031,
2009-08-08, 02:39:04,VALID,998.659,VALID,0,VALID,78.7987,VALID,0,VALID,22.7257,VALID,336,VALID,0.781641,
2009-08-08, 02:40:04,VALID,998.723,VALID,0,VALID,78.8979,VALID,0,VALID,22.6672,VALID,1,VALID,0.853906,
2009-08-08, 02:41:04,VALID,998.754,VALID,0,VALID,79.2718,VALID,0,VALID,22.6494,VALID,25,VALID,0.940625,
2009-08-08, 02:42:04,VALID,998.743,VALID,0,VALID,79.7982,VALID,0,VALID,22.5909,VALID,28,VALID,1.25859,
2009-08-08, 02:43:04,VALID,998.759,VALID,0,VALID,80.1492,VALID,0,VALID,22.5128,VALID,41,VALID,1.45781,
2009-08-08, 02:44:04,VALID,998.789,VALID,0,VALID,80.584,VALID,0,VALID,22.4136,VALID,39,VALID,1.19687,
2009-08-08, 02:45:04,VALID,998.835,VALID,0,VALID,80.5688,VALID,0,VALID,22.4153,VALID,48,VALID,1.31992,
2009-08-08, 02:46:04,VALID,998.861,VALID,0,VALID,81.2402,VALID,0,VALID,22.3941,VALID,62,VALID,1.38555,
2009-08-08, 02:47:04,VALID,998.901,VALID,0,VALID,81.3852,VALID,0,VALID,22.4348,VALID,69,VALID,0.60625,
2009-08-08, 02:48:04,VALID,998.864,VALID,0,VALID,81.5759,VALID,0,VALID,22.4153,VALID,59,VALID,0.919141,
2009-08-08, 02:49:04,VALID,998.903,VALID,0,VALID,82.2778,VALID,0,VALID,22.4348,VALID,72,VALID,1.45625,
2009-08-08, 02:50:04,VALID,998.891,VALID,0,VALID,82.5449,VALID,0,VALID,22.4136,VALID,61,VALID,1.04062,
2009-08-08, 02:51:04,VALID,998.843,VALID,0,VALID,82.6669,VALID,0,VALID,22.4153,VALID,34,VALID,0.860547,
2009-08-08, 02:52:04,VALID,998.815,VALID,0,VALID,82.728,VALID,0,VALID,22.3746,VALID,13,VALID,0.459766,
2009-08-08, 02:53:04,VALID,998.807,VALID,0,VALID,82.9492,VALID,0,VALID,22.3161,VALID,13,VALID,0.451953,
2009-08-08, 02:54:04,VALID,998.78,VALID,0,VALID,83.0179,VALID,0,VALID,22.2771,VALID,10,VALID,0.803125,
2009-08-08, 02:55:04,VALID,998.787,VALID,0,VALID,82.7051,VALID,0,VALID,22.2788,VALID,340,VALID,0.809766,
2009-08-08, 02:56:04,VALID,998.75,VALID,0,VALID,82.8195,VALID,0,VALID,22.2202,VALID,327,VALID,0.436328,
2009-08-08, 02:57:04,VALID,998.731,VALID,0,VALID,82.1023,VALID,0,VALID,22.199,VALID,337,VALID,0.462109,
2009-08-08, 02:58:04,VALID,998.779,VALID,0,VALID,81.6751,VALID,0,VALID,22.2397,VALID,2,VALID,0.690625,
2009-08-08, 02:59:04,VALID,998.739,VALID,0,VALID,81.5301,VALID,0,VALID,22.2592,VALID,21,VALID,0.858203,
2009-08-08, 03:00:04,VALID,998.788,VALID,0,VALID,81.0342,VALID,0,VALID,22.2983,VALID,24,VALID,1.1668,
2009-08-08, 03:01:04,VALID,998.814,VALID,0,VALID,81.0189,VALID,0,VALID,22.3178,VALID,31,VALID,0.787109,
2009-08-08, 03:02:04,VALID,998.853,VALID,0,VALID,80.6832,VALID,0,VALID,22.3356,VALID,31,VALID,0.644531,
2009-08-08, 03:03:04,VALID,998.851,VALID,0,VALID,80.6451,VALID,0,VALID,22.3356,VALID,20,VALID,0.824219,
2009-08-08, 03:04:04,VALID,998.847,VALID,0,VALID,80.1263,VALID,0,VALID,22.2966,VALID,19,VALID,1.12969,
2009-08-08, 03:05:04,VALID,998.853,VALID,0,VALID,78.9513,VALID,0,VALID,22.3373,VALID,19,VALID,0.896484,
2009-08-08, 03:06:04,VALID,998.857,VALID,0,VALID,79.0276,VALID,0,VALID,22.3551,VALID,19,VALID,0.866406,
2009-08-08, 03:07:04,VALID,998.84,VALID,0,VALID,79.081,VALID,0,VALID,22.3958,VALID,19,VALID,0.902734,
2009-08-08, 03:08:04,VALID,998.846,VALID,0,VALID,79.5083,VALID,0,VALID,22.4136,VALID,24,VALID,1.03867,
2009-08-08, 03:09:04,VALID,998.805,VALID,0,VALID,79.4854,VALID,0,VALID,22.4348,VALID,42,VALID,1.09336,
2009-08-08, 03:10:04,VALID,998.827,VALID,0,VALID,78.6614,VALID,0,VALID,22.3746,VALID,64,VALID,1.51914,
2009-08-08, 03:11:04,VALID,998.793,VALID,0,VALID,78.3409,VALID,0,VALID,22.4136,VALID,48,VALID,0.942578,
2009-08-08, 03:12:04,VALID,998.786,VALID,0,VALID,78.4249,VALID,0,VALID,22.4331,VALID,52,VALID,1.00547,
2009-08-08, 03:13:04,VALID,998.802,VALID,0,VALID,78.3028,VALID,0,VALID,22.4526,VALID,59,VALID,1.0957,
2009-08-08, 03:14:04,VALID,998.785,VALID,0,VALID,78.2189,VALID,0,VALID,22.5323,VALID,60,VALID,1.0543,
2009-08-08, 03:15:04,VALID,998.824,VALID,0,VALID,78.2875,VALID,0,VALID,22.5501,VALID,83,VALID,0.808203,
2009-08-08, 03:16:04,VALID,998.823,VALID,0,VALID,77.8832,VALID,0,VALID,22.5501,VALID,41,VALID,0.834375,
2009-08-08, 03:17:04,VALID,998.905,VALID,0,VALID,78.1655,VALID,0,VALID,22.5501,VALID,64,VALID,1.01445,
2009-08-08, 03:18:04,VALID,998.95,VALID,0,VALID,78.5088,VALID,0,VALID,22.5909,VALID,78,VALID,0.378516,
2009-08-08, 03:19:04,VALID,998.911,VALID,0,VALID,79.9508,VALID,0,VALID,22.5696,VALID,79,VALID,0.5125,
2009-08-08, 03:20:04,VALID,998.914,VALID,0,VALID,80.462,VALID,0,VALID,22.5501,VALID,79,VALID,0.419531,
2009-08-08, 03:21:04,VALID,998.93,VALID,0,VALID,80.668,VALID,0,VALID,22.5323,VALID,6,VALID,0.613672,
2009-08-08, 03:22:04,VALID,998.948,VALID,0,VALID,80.4467,VALID,0,VALID,22.4721,VALID,353,VALID,0.542188,
2009-08-08, 03:23:04,VALID,998.95,VALID,0,VALID,79.9203,VALID,0,VALID,22.4348,VALID,353,VALID,0.562891,
2009-08-08, 03:24:04,VALID,998.945,VALID,0,VALID,80.1644,VALID,0,VALID,22.3941,VALID,353,VALID,0.458594,
2009-08-08, 03:25:04,VALID,998.958,VALID,0,VALID,80.4315,VALID,0,VALID,22.3551,VALID,353,VALID,0.289063,
2009-08-08, 03:26:04,VALID,998.966,VALID,0,VALID,80.5612,VALID,0,VALID,22.3568,VALID,353,VALID,0.246094,
2009-08-08, 03:27:04,VALID,999.021,VALID,0,VALID,80.7443,VALID,0,VALID,22.2966,VALID,353,VALID,0.25625,
2009-08-08, 03:28:04,VALID,999.076,VALID,0,VALID,80.8816,VALID,0,VALID,22.3178,VALID,27,VALID,0.654688,
2009-08-08, 03:29:04,VALID,999.126,VALID,0,VALID,80.8435,VALID,0,VALID,22.2966,VALID,87,VALID,1.24258,
2009-08-08, 03:30:04,VALID,999.129,VALID,0,VALID,81.1105,VALID,0,VALID,22.2771,VALID,98,VALID,1.51289,
2009-08-08, 03:31:04,VALID,999.204,VALID,0,VALID,81.4157,VALID,0,VALID,22.2966,VALID,107,VALID,1.53984,
2009-08-08, 03:32:04,VALID,999.215,VALID,0,VALID,81.8811,VALID,0,VALID,22.3178,VALID,101,VALID,1.68398,
2009-08-08, 03:33:04,VALID,999.199,VALID,0,VALID,82.7051,VALID,0,VALID,22.3356,VALID,103,VALID,1.58281,
2009-08-08, 03:34:04,VALID,999.158,VALID,0,VALID,83.0332,VALID,0,VALID,22.3373,VALID,105,VALID,1.27578,
2009-08-08, 03:35:04,VALID,999.126,VALID,0,VALID,82.8424,VALID,0,VALID,22.3161,VALID,109,VALID,1.35859,
2009-08-08, 03:36:04,VALID,999.138,VALID,0,VALID,81.6217,VALID,0,VALID,22.3178,VALID,87,VALID,1.66016,
2009-08-08, 03:37:04,VALID,999.117,VALID,0,VALID,82.1023,VALID,0,VALID,22.3356,VALID,94,VALID,1.05664,
2009-08-08, 03:38:04,VALID,999.169,VALID,0,VALID,82.0871,VALID,0,VALID,22.3958,VALID,112,VALID,1.05703,
2009-08-08, 03:39:04,VALID,999.188,VALID,0,VALID,81.9421,VALID,0,VALID,22.3958,VALID,110,VALID,1.54453,
2009-08-08, 03:40:04,VALID,999.233,VALID,0,VALID,81.8048,VALID,0,VALID,22.3941,VALID,91,VALID,0.991016,
2009-08-08, 03:41:04,VALID,999.237,VALID,0,VALID,81.9498,VALID,0,VALID,22.4136,VALID,106,VALID,1.32305,
2009-08-08, 03:42:04,VALID,999.251,VALID,0,VALID,81.4462,VALID,0,VALID,22.4348,VALID,114,VALID,0.853516,
2009-08-08, 03:43:04,VALID,999.305,VALID,0,VALID,81.759,VALID,0,VALID,22.4738,VALID,124,VALID,1.2707,
2009-08-08, 03:44:04,VALID,999.267,VALID,0,VALID,81.6903,VALID,0,VALID,22.4933,VALID,108,VALID,1.53672,
2009-08-08, 03:45:04,VALID,999.236,VALID,0,VALID,80.5306,VALID,0,VALID,22.5306,VALID,82,VALID,1.31758,
2009-08-08, 03:46:04,VALID,999.231,VALID,0,VALID,79.9126,VALID,0,VALID,22.5714,VALID,72,VALID,0.886719,